Regional Weather Roundup
Issued by NWS State College, PA

Home | Current Version | Previous Version | Text Only | Print | Product List | Glossary On
Versions: 1 2 3 4 5 6 7 8 9 10 11 12 13 14 15 16 17 18 19 20 21 22 23 24 25 26 27 28 29 30 31 32 33 34 35 36 37 38 39 40 41 42 43 44 45 46 47 48 49 50
000
ASUS41 KCTP 030403
RWRCTP

REGIONAL WEATHER ROUNDUP
NATIONAL WEATHER SERVICE STATE COLLEGE PA
1100 PM EST MON MAR 02 2015

Note: "fair" indicates few or no clouds below 12,000 feet with no
significant weather and/or obstructions to visibility.

* = STATION THAT DOES NOT REPORT PRECIPITATION /E.G. RAIN...SNOW...ETC/
    THUNDER OR FOG.

PAZ002>004-007>009-013>016-020>023-029>032-030500-
WESTERN PENNSYLVANIA

CITY           SKY/WX    TMP DP  RH WIND       PRES   REMARKS
ERIE           FAIR      12   7  80 S3        30.42F
MEADVILLE        N/A     15   7  70 E3        30.36F
FRANKLIN*      FAIR      10   5  79 E3        30.37S
NEW CASTLE     FAIR      15   8  73 CALM      30.41F
BEAVER COUNTY  NOT AVBL
BUTLER*        FAIR      10   9  92 CALM      30.39F
PITTSBURGH INT FAIR      18  13  80 CALM      30.38F
PITTSBURGH     FAIR      23  10  57 NW3       30.37F
INDIANA*       PTCLDY    12  10  92 E3        30.41F
LATROBE        FAIR      18  16  93 CALM      30.41F
WASHINGTON CO* FAIR      14   9  79 CALM      30.39F
$$

PAZ004>006-010>012-017>019-024>028-033>037-041-042-045-046-049>053-030500-
CENTRAL PENNSYLVANIA

CITY           SKY/WX    TMP DP  RH WIND       PRES   REMARKS
BRADFORD       FAIR       4   0  83 CALM      30.31S
DUBOIS         FAIR      15   7  70 N5        30.33F WCI   8
CLEARFIELD     FAIR      17   7  64 N3        30.36F
JOHNSTOWN      FAIR      17  10  74 W7        30.29F WCI   8
ALTOONA        FAIR      21  10  62 CALM      30.36S
STATE COLLEGE  FAIR      22   8  54 NW10G17   30.37S WCI  11
WILLIAMSPORT   FAIR      23   7  50 N7        30.41R WCI  15
SELINSGROVE    FAIR      27   6  41 NW9       30.40R
FT INDIANTOWN  FAIR      29   8  42 W9        30.37R
CAPITAL CITY   FAIR      26  13  57 W8        30.39S
HARRISBURG     FAIR      27  13  55 NW8       30.39R
YORK           FAIR      24  13  62 W3        30.39S
$$

PAZ038>040-043-044-047-048-054-055-060>062-067>071-030500-
EASTERN PENNSYLVANIA

CITY           SKY/WX    TMP DP  RH WIND       PRES   REMARKS
SCRANTON       FAIR      22   7  52 NW15G28   30.34R WCI   9
MOUNT POCONO   FAIR      17   6  62 NW16G23   30.24R WCI   2
ALLENTOWN      FAIR      27   6  41 N10       30.37R
QUAKERTOWN*    FAIR      27   7  43 NW10G17   30.37R
READING        FAIR      27  10  49 W8        30.37R
LANCASTER      FAIR      25  14  63 W5        30.38R
COATESVILLE    FAIR      27  18  69 W10       30.36R
POTTSTOWN      FAIR      27  12  53 NW6       30.38R
BLUE BELL      FAIR      32  16  51 CALM      30.36R
DOYLESTOWN     FAIR      27   7  42 NW9       30.36R
WILLOW GROVE   NOT AVBL
NORTH PHILA    FAIR      29  12  49 NW5       30.39R
PHILADELPHIA   FAIR      31  15  52 W10       30.40R
$$


USA.gov is the U.S. government's official web portal to all federal, state and local government web resources and services.